Probability
97 84 97 81 58 55 61 71 52 61 55 48 42 35 42 42 35 42 81 84 81 74 65 61 71 65 65 68 65 65 74 77 84 81 77 71 61 58 55 48 45 42 32
97 94 97 90 65 55 61 45 42 55 58 48 32 35 35 35 61 58 55 71 68 71 68 65 71 65 65 61 61 65 65 74 81 77 74 81 74 65 61 45 55 48 39
94 97 77 84 74 68 71 55 45 35 35 32 26 29 35 35 39 52 42 48 65 65 71 71 71 68 68 58 58 55 65 74 74 87 81 77 77 65 68 55 48 52 58
90 90 71 58 65 61 48 48 35 23 16 10 19 16 29 39 29 42 29 39 45 42 55 65 74 74 65 58 45 48 65 68 71 81 74 84 71 74 74 61 52 58 58
77 84 74 71 61 45 35 26 23 19 13 13 3 13 16 26 23 10 19 26 35 48 48 61 61 68 55 52 45 45 35 42 61 71 68 74 65 81 77 74 74 55 52
71 55 65 65 52 45 48 26 16 16 13 10 3 3 10 10 6 19 3 10 23 23 23 29 55 52 55 55 45 45 39 39 45 45 55 68 71 81 65 61 65 65 45
61 61 35 58 48 42 32 16 6 6 10 10 3 10 6 6 6 10 6 0 6 13 19 29 32 39 48 32 35 45 42 42 42 42 48 52 61 71 61 52 52 52 45
58 39 52 42 42 45 32 16 19 6 6 3 3 10 3 3 3 0 10 10 6 16 10 6 16 39 23 32 19 35 39 39 35 35 42 35 35 35 39 32 39 29 35
45 32 45 35 39 23 23 16 16 6 3 0 3 0 6 6 13 0 0 0 16 16 13 13 3 13 16 29 23 6 32 26 26 26 32 42 32 16 13 16 19 16 16
35 29 35 29 32 19 19 16 10 10 3 3 0 3 3 0 0 6 3 0 3 6 3 0 0 6 6 13 16 3 6 0 19 19 16 29 29 19 6 6 10 16 19
32 29 29 32 32 16 13 13 13 10 10 6 3 0 0 0 0 0 6 3 3 0 0 0 3 6 3 6 16 3 0 0 0 6 10 16 19 16 6 10 6 6 10
35 26 29 32 29 19 23 13 16 6 10 10 10 10 0 0 0 0 0 6 6 3 0 3 0 0 0 0 0 0 0 0 0 0 0 0 6 6 10 6 3 3 3
35 42 23 39 35 23 23 16 19 10 6 6 10 10 0 0 0 0 0 0 3 6 0 0 0 0 0 0 0 0 0 0 0 0 0 0 0 0 0 3 3 3 6
26 42 32 39 26 23 13 23 13 10 13 10 6 6 10 0 0 0 0 0 0 0 0 0 3 0 3 3 0 0 0 0 0 0 0 0 0 0 0 0 0 3 3
35 35 35 32 23 23 26 26 16 13 13 10 6 6 3 3 3 0 0 0 0 0 0 3 0 0 0 6 0 0 0 0 0 0 0 0 0 0 0 0 0 0 0
39 39 32 32 32 29 32 29 23 19 23 23 23 10 13 3 3 3 3 3 3 0 0 0 3 3 3 3 3 3 3 0 0 0 0 0 0 0 0 0 0 0 0
61 52 42 35 29 29 32 35 13 19 19 19 19 13 19 13 6 6 6 6 3 3 3 3 3 3 3 3 3 3 3 3 0 0 0 0 0 0 0 0 0 0 0
58 58 55 42 35 29 35 35 26 16 23 23 23 16 16 10 13 6 10 6 3 6 3 3 3 3 3 3 3 3 0 0 0 0 0 0 0 0 0 0 0 0 0
58 52 55 48 42 35 39 39 32 23 16 19 19 16 16 16 16 13 10 6 3 0 0 0 0 6 0 0 0 3 0 3 0 0 0 0 0 0 0 0 0 0 0
52 55 52 52 45 39 42 35 32 29 26 19 19 13 13 10 13 13 13 13 6 3 0 0 0 3 6 3 3 6 3 3 0 0 0 0 0 0 0 0 0 0 0
48 52 55 52 45 39 35 32 29 16 29 19 16 16 6 6 6 3 3 10 6 6 13 13 10 10 6 10 6 6 6 3 0 0 0 0 0 0 0 0 0 0 0
48 48 45 35 39 13 6 0 6 13 23 26 26 19 6 6 0 0 0 0 0 0 10 16 19 6 16 13 19 6 3 3 3 0 6 0 0 0 0 0 0 0 0
52 55 45 39 39 23 0 0 0 3 10 19 13 10 3 0 3 3 0 0 0 0 0 0 3 3 16 13 16 13 6 10 3 6 10 3 0 0 0 0 0 0 0
58 58 52 39 35 23 0 0 0 3 3 10 10 6 6 3 3 3 3 0 0 0 0 0 0 0 0 6 10 13 16 10 10 10 6 0 0 0 0 0 0 0 0
55 52 45 42 45 23 0 0 0 3 3 3 3 3 3 3 0 0 0 0 0 0 0 0 0 0 0 0 0 0 6 6 3 3 10 3 3 3 3 3 0 0 0
58 42 29 32 29 32 0 0 0 3 3 3 3 3 0 0 0 0 0 0 0 0 0 0 0 0 0 0 0 0 0 0 0 0 0 3 0 0 0 0 0 0 0
Height
5892 5893 5894 5895 5895 5895 5895 5895 5896 5896 5896 5896 5896 5896 5896 5896 5896 5896 5896 5896 5896 5896 5896 5896 5897 5897 5897 5897 5898 5898 5899 5899 5900 5901 5901 5902 5903 5903 5904 5904 5905 5905 5906
5891 5892 5893 5894 5894 5895 5895 5895 5895 5895 5895 5895 5895 5895 5895 5895 5895 5895 5895 5895 5895 5895 5895 5895 5895 5895 5896 5896 5896 5896 5897 5897 5898 5898 5899 5900 5901 5901 5902 5903 5903 5904 5904
5889 5891 5891 5892 5893 5894 5894 5894 5895 5895 5895 5895 5894 5894 5894 5894 5894 5894 5894 5894 5894 5894 5894 5894 5894 5894 5894 5894 5894 5894 5895 5895 5895 5896 5897 5897 5898 5899 5900 5900 5901 5901 5902
5887 5889 5890 5891 5892 5893 5893 5894 5894 5894 5894 5894 5894 5894 5893 5893 5894 5893 5893 5893 5893 5893 5893 5893 5893 5893 5893 5893 5893 5893 5893 5893 5893 5894 5894 5895 5895 5896 5897 5898 5898 5899 5899
5885 5887 5889 5890 5891 5892 5893 5893 5893 5893 5894 5893 5893 5893 5893 5893 5893 5893 5893 5893 5892 5892 5892 5892 5892 5892 5892 5892 5892 5891 5891 5891 5891 5891 5892 5892 5893 5893 5894 5895 5895 5896 5897
5883 5885 5887 5888 5890 5891 5892 5892 5892 5893 5893 5893 5893 5893 5893 5893 5893 5893 5892 5892 5892 5892 5891 5891 5891 5891 5891 5891 5890 5890 5890 5889 5889 5889 5889 5889 5890 5890 5891 5891 5892 5892 5893
5881 5884 5885 5887 5888 5890 5891 5891 5892 5892 5892 5892 5892 5892 5892 5892 5892 5892 5892 5892 5891 5891 5891 5891 5891 5890 5890 5889 5889 5889 5888 5888 5887 5887 5887 5887 5887 5887 5888 5888 5888 5889 5889
5879 5882 5884 5885 5887 5888 5889 5890 5891 5891 5891 5892 5892 5892 5892 5893 5892 5892 5892 5891 5891 5891 5890 5890 5890 5889 5889 5888 5888 5887 5887 5886 5885 5885 5885 5885 5885 5885 5885 5885 5885 5885 5885
5877 5879 5882 5884 5885 5887 5888 5889 5890 5890 5891 5891 5891 5891 5891 5892 5891 5891 5891 5891 5890 5890 5890 5889 5889 5888 5888 5887 5886 5886 5885 5885 5884 5883 5883 5882 5882 5882 5882 5881 5881 5881 5882
5875 5878 5880 5882 5884 5885 5887 5888 5889 5889 5890 5890 5890 5890 5891 5891 5891 5891 5890 5890 5889 5889 5889 5888 5887 5887 5886 5885 5885 5884 5883 5883 5882 5881 5881 5880 5879 5879 5879 5878 5878 5878 5878
5873 5875 5878 5880 5882 5883 5885 5886 5887 5888 5888 5889 5889 5889 5889 5889 5889 5889 5889 5889 5888 5888 5887 5886 5886 5885 5884 5884 5883 5882 5881 5880 5880 5879 5878 5877 5877 5876 5875 5875 5875 5874 5874
5870 5873 5875 5878 5880 5881 5883 5885 5886 5886 5887 5888 5888 5888 5888 5888 5888 5888 5887 5887 5886 5886 5885 5884 5884 5883 5882 5882 5881 5880 5879 5878 5877 5876 5876 5875 5874 5873 5872 5871 5871 5870 5870
5868 5871 5873 5875 5877 5879 5881 5882 5884 5884 5885 5886 5886 5886 5886 5886 5886 5886 5885 5885 5884 5883 5883 5882 5881 5881 5880 5879 5878 5877 5876 5875 5874 5873 5872 5871 5870 5870 5869 5868 5867 5866 5866
5865 5868 5870 5873 5875 5877 5878 5880 5881 5882 5883 5883 5884 5884 5884 5884 5883 5883 5883 5882 5882 5881 5880 5879 5878 5877 5877 5876 5875 5874 5873 5872 5871 5870 5869 5868 5867 5866 5865 5864 5863 5862 5861
5862 5865 5867 5870 5872 5874 5876 5877 5878 5879 5880 5880 5881 5881 5881 5881 5880 5880 5879 5879 5879 5878 5877 5876 5875 5874 5873 5872 5871 5870 5869 5868 5867 5866 5864 5863 5862 5861 5860 5859 5858 5857 5856
5859 5861 5864 5867 5869 5871 5872 5874 5875 5876 5876 5877 5877 5877 5877 5877 5876 5876 5875 5875 5874 5873 5872 5871 5870 5869 5868 5867 5866 5865 5864 5863 5862 5860 5859 5858 5857 5856 5855 5854 5853 5852 5851
5856 5859 5861 5864 5866 5867 5869 5870 5871 5871 5872 5872 5873 5873 5872 5872 5871 5871 5870 5869 5869 5868 5867 5866 5865 5864 5862 5861 5860 5859 5857 5856 5856 5855 5853 5852 5851 5850 5849 5848 5847 5846 5845
5853 5855 5858 5860 5862 5863 5864 5865 5866 5867 5867 5867 5867 5867 5867 5867 5866 5865 5864 5863 5862 5861 5860 5859 5858 5857 5856 5854 5853 5852 5850 5849 5848 5847 5846 5845 5844 5843 5841 5840 5839 5838 5837
5849 5852 5854 5856 5857 5858 5859 5860 5861 5861 5862 5861 5861 5861 5861 5860 5859 5859 5858 5857 5855 5854 5853 5852 5851 5849 5848 5846 5845 5844 5842 5841 5839 5838 5837 5836 5835 5834 5833 5832 5831 5830 5829
5846 5848 5849 5851 5852 5853 5854 5854 5855 5855 5855 5855 5854 5854 5853 5853 5852 5851 5850 5849 5848 5846 5845 5844 5842 5841 5839 5838 5836 5835 5833 5832 5830 5829 5828 5827 5826 5825 5823 5822 5821 5820 5819
5841 5843 5844 5846 5847 5847 5848 5848 5848 5848 5848 5847 5847 5846 5846 5845 5844 5843 5842 5841 5839 5838 5836 5835 5833 5832 5830 5828 5827 5825 5823 5822 5820 5819 5817 5816 5815 5814 5813 5812 5811 5809 5808
5837 5838 5839 5840 5841 5841 5842 5841 5841 5841 5840 5840 5839 5838 5837 5837 5835 5834 5833 5831 5830 5828 5827 5825 5823 5822 5820 5818 5816 5814 5813 5811 5810 5808 5806 5805 5803 5802 5801 5800 5799 5798 5796
5832 5833 5834 5834 5834 5835 5834 5834 5833 5832 5832 5831 5830 5829 5827 5827 5826 5824 5822 5820 5819 5817 5816 5814 5813 5811 5809 5807 5805 5803 5801 5800 5798 5796 5794 5793 5791 5789 5788 5787 5786 5785 5783
5827 5827 5827 5827 5827 5827 5826 5825 5824 5824 5823 5822 5820 5819 5817 5816 5814 5813 5811 5809 5807 5805 5804 5802 5801 5799 5797 5795 5793 5791 5789 5787 5786 5784 5781 5780 5778 5777 5775 5774 5772 5771 5770
5820 5820 5820 5820 5819 5819 5818 5817 5815 5814 5813 5812 5810 5808 5807 5805 5803 5801 5798 5797 5795 5793 5791 5789 5788 5786 5784 5781 5779 5777 5776 5774 5772 5771 5768 5766 5764 5762 5761 5759 5758 5756 5755
5813 5812 5812 5812 5811 5810 5809 5808 5806 5804 5803 5801 5799 5797 5795 5793 5791 5788 5786 5783 5782 5780 5777 5776 5774 5772 5770 5767 5765 5763 5761 5759 5757 5756 5753 5751 5749 5747 5746 5744 5742 5741 5740
Wind_Speed
9 8 6 5 4 3 2 1 1 1 1 1 1 2 2 3 4 4 4 5 5 6 6 6 7 8 9 9 10 10 11 11 11 11 11 11 11 10 10 10 9 8 8
9 8 7 5 5 4 3 2 1 1 1 1 2 2 2 3 4 5 5 5 5 5 6 6 8 8 8 9 9 10 10 11 11 12 12 12 12 12 12 12 11 10 10
10 9 8 6 5 4 4 3 2 2 2 2 2 3 3 3 4 5 5 6 5 5 5 5 6 7 8 8 9 10 10 11 12 12 12 12 12 13 13 13 12 12 12
11 10 9 7 6 5 5 3 2 2 2 2 2 2 2 2 3 4 5 5 5 5 5 5 6 6 6 7 8 8 9 10 10 11 12 13 13 13 13 13 14 14 14
11 10 10 8 7 6 5 4 3 2 2 2 1 1 1 2 2 3 3 4 5 5 5 5 6 6 6 7 8 8 9 9 10 10 12 13 13 14 14 15 15 15 15
12 11 10 9 8 7 6 5 3 2 2 2 1 1 1 2 2 2 3 3 4 4 4 5 5 6 6 7 8 8 8 9 9 10 10 12 13 13 13 15 16 16 16
13 12 11 10 9 8 6 5 4 3 2 2 2 2 2 2 2 3 3 3 3 3 3 4 4 5 6 7 7 8 8 8 9 9 9 11 12 12 13 14 15 17 18
14 13 12 11 10 8 7 6 5 4 3 3 2 2 2 2 2 3 3 3 3 3 4 4 5 6 6 7 7 7 7 8 8 9 9 10 11 12 13 13 15 16 17
15 14 13 12 11 9 8 7 6 5 5 4 3 3 3 2 3 3 3 3 4 4 5 6 6 7 7 7 7 7 8 8 9 9 10 10 11 12 13 14 14 15 16
16 15 14 13 12 11 9 8 7 6 5 5 4 3 3 3 3 4 4 4 5 6 6 7 7 7 8 8 8 8 9 9 9 10 10 11 11 12 13 14 14 15 15
18 16 15 14 13 12 10 9 7 6 5 5 4 4 4 4 5 5 5 6 6 6 7 8 8 9 9 10 10 10 10 11 11 11 11 11 12 13 14 15 16 16 16
19 18 17 15 14 13 11 10 9 8 7 6 6 6 6 6 6 7 7 7 8 8 9 9 10 10 11 11 11 12 12 12 12 13 13 13 13 14 14 15 16 17 17
19 18 17 17 15 14 12 11 10 9 8 8 8 8 8 9 9 9 10 10 10 11 11 12 12 12 13 13 13 14 14 14 14 14 15 15 15 15 15 16 16 17 18
20 20 19 17 16 15 13 12 11 11 10 10 10 11 11 11 12 12 13 13 13 14 14 14 15 15 16 16 16 16 16 16 16 16 17 17 17 17 17 18 18 18 19
20 20 20 18 17 16 14 14 14 13 13 13 13 13 14 14 14 15 16 16 17 17 17 18 18 18 19 19 19 19 19 19 19 19 19 19 19 20 20 20 20 20 21
20 19 20 19 18 17 16 16 16 16 16 15 16 16 17 17 18 18 19 20 20 20 20 21 21 21 21 22 22 22 22 22 22 22 22 22 22 22 22 22 22 22 23
19 19 19 19 19 18 18 18 18 19 19 19 19 20 20 21 21 21 22 23 24 24 24 24 24 25 25 25 25 26 26 26 26 25 26 25 25 25 25 25 25 25 25
20 20 20 20 20 20 21 21 21 22 22 22 23 23 23 24 25 25 25 26 27 27 28 28 28 28 28 29 29 29 29 30 29 29 29 29 29 29 29 28 28 28 28
21 21 22 22 22 22 22 23 24 25 25 25 26 26 26 27 27 27 28 29 29 30 31 31 31 31 32 32 32 32 33 33 33 33 32 32 32 33 32 32 32 32 32
21 22 23 23 23 23 24 25 26 26 27 28 29 29 29 30 31 31 31 31 32 32 33 34 34 34 34 35 35 35 35 35 35 36 36 36 36 36 36 36 36 35 35
21 22 23 24 25 25 26 27 28 29 30 31 31 32 32 32 33 34 34 34 35 35 36 36 37 37 38 38 38 38 38 38 39 39 39 39 39 39 39 39 39 39 38
22 22 24 25 26 27 27 29 30 31 33 33 34 35 36 35 36 36 37 38 39 39 39 39 40 40 40 41 41 42 42 42 42 42 42 42 43 43 42 42 42 42 41
23 24 25 27 28 29 31 32 33 34 35 35 36 37 38 39 40 40 41 42 42 43 43 42 42 42 43 43 43 43 43 43 43 44 45 45 46 45 45 45 45 44 44
25 27 28 30 31 32 34 35 36 36 37 38 39 40 40 41 41 43 44 44 44 44 45 44 44 44 45 45 45 45 44 45 45 46 47 47 47 48 48 48 47 47 47
27 28 29 30 32 32 33 34 36 36 37 39 39 41 42 42 42 43 45 45 45 45 47 47 47 46 47 46 46 47 48 48 48 48 49 50 49 50 50 50 50 49 49
29 30 31 32 33 34 35 37 38 39 39 39 40 41 42 42 43 45 45 45 45 46 47 47 47 48 49 49 49 49 49 50 50 50 51 51 51 52 52 52 52 52 51
Wind_Direction
221 218 216 216 210 198 191 180 156 156 236 254 266 266 249 238 228 229 231 240 245 245 249 250 242 240 238 239 240 239 236 235 235 234 232 233 234 234 234 234 235 237 238
221 220 217 213 207 202 200 193 186 238 280 274 265 259 258 251 238 237 244 251 252 253 257 258 250 248 248 250 250 249 246 244 242 240 241 241 239 240 240 239 240 242 242
221 221 219 213 206 203 202 201 207 245 270 273 265 258 260 259 251 247 255 257 255 259 264 263 260 254 256 262 262 258 255 253 249 246 245 247 245 242 243 243 242 245 245
218 217 213 212 207 206 205 205 214 235 260 279 277 270 263 258 255 256 260 261 261 262 262 267 268 266 268 271 273 267 266 261 256 253 251 248 247 248 248 247 247 248 249
213 213 212 208 206 205 207 207 210 224 245 263 275 277 265 253 257 259 262 264 265 268 271 273 274 277 278 279 283 280 274 270 268 263 258 252 250 250 250 250 250 252 252
208 210 209 207 209 209 209 205 205 209 218 226 246 260 255 255 262 262 270 278 279 279 283 283 282 284 285 284 287 285 282 279 279 275 268 259 253 254 255 254 253 253 255
207 209 205 205 205 205 205 202 202 204 207 220 236 245 254 265 273 276 280 293 293 293 289 287 290 295 296 295 293 292 291 289 286 284 277 267 261 262 262 259 260 258 258
207 208 206 204 203 203 205 204 202 201 205 219 233 241 251 266 267 276 281 284 293 300 293 289 292 296 297 297 298 298 294 294 290 288 282 274 268 269 270 268 264 263 260
209 207 206 204 203 202 207 210 208 208 212 225 238 242 245 264 278 285 289 285 286 289 291 295 295 298 301 303 303 302 301 297 295 292 289 284 280 275 271 273 273 271 267
210 207 204 204 204 205 208 208 208 210 219 227 230 238 252 267 283 292 291 287 286 286 287 288 288 291 296 300 301 302 302 300 297 295 294 292 289 285 280 278 277 274 271
211 207 206 206 206 207 207 208 213 217 222 229 237 249 259 268 279 289 290 288 286 286 287 287 286 286 289 293 296 299 299 298 297 297 296 296 294 292 288 284 281 279 276
211 210 208 208 209 209 210 214 220 225 231 238 245 255 262 268 276 285 287 288 288 287 287 288 288 287 288 289 291 294 295 295 295 294 295 294 294 293 292 289 284 281 279
212 211 210 211 212 213 217 221 228 233 239 246 252 258 263 268 275 281 285 286 288 288 287 287 288 287 288 288 288 289 291 292 292 292 292 292 292 292 292 291 288 285 281
214 215 215 213 213 218 225 229 235 241 246 252 257 262 266 269 274 279 283 286 288 290 290 290 290 289 289 288 287 285 286 287 289 290 291 290 289 290 290 290 289 287 284
216 218 217 217 219 226 232 237 243 247 251 257 262 266 269 273 275 278 281 284 286 288 289 289 289 289 288 288 287 286 285 285 287 288 288 288 287 287 288 288 288 287 286
216 218 219 222 226 232 237 242 248 251 256 261 265 268 271 274 277 278 280 282 283 284 285 286 286 286 287 286 286 285 284 284 285 286 286 286 286 286 286 286 285 285 285
218 220 224 229 234 239 244 248 251 255 259 263 267 270 272 274 276 278 279 280 281 282 283 283 283 284 284 285 285 284 284 284 284 284 285 285 285 284 284 284 283 283 282
224 227 229 235 239 244 249 252 255 258 261 264 268 271 273 275 277 277 278 279 279 281 281 281 281 281 282 283 284 284 284 283 282 281 281 282 283 283 283 283 282 282 281
231 233 236 240 245 249 252 256 259 261 263 265 268 271 273 274 276 277 278 279 280 280 280 281 281 281 282 283 283 283 283 282 281 280 280 280 281 281 281 281 281 281 280
237 238 242 246 249 252 255 259 261 263 265 266 268 271 273 273 275 277 278 280 281 281 281 281 281 282 282 282 282 282 281 280 280 280 279 279 280 280 279 279 280 279 278
242 244 247 250 252 257 260 263 264 266 267 268 269 271 273 275 275 277 278 279 280 280 280 280 280 281 282 282 281 281 281 280 280 280 279 279 280 280 280 280 280 279 278
250 252 252 254 258 261 263 265 266 269 271 270 271 273 274 276 277 278 278 278 279 280 281 280 280 281 281 281 282 281 280 280 280 280 280 279 279 279 279 280 279 279 278
256 259 260 261 263 265 266 268 269 270 272 273 274 275 276 276 278 278 278 278 279 279 279 279 279 280 280 281 281 280 280 280 280 280 279 279 280 280 280 280 279 279 278
260 262 264 266 268 269 270 271 272 273 274 275 275 276 278 279 279 279 280 280 279 279 279 279 279 280 280 280 280 279 279 279 279 279 280 280 280 280 280 281 280 279 277
265 265 267 268 271 272 272 273 274 275 276 277 278 278 278 279 280 282 281 280 280 279 278 279 279 279 280 279 279 279 279 279 279 279 279 279 280 280 280 280 279 278 277
267 268 269 271 272 273 274 276 277 277 277 278 279 280 281 281 281 281 281 280 279 279 279 278 278 279 280 281 280 280 280 280 281 281 280 279 280 280 279 279 278 278 277